User: anonymous   Login
Location: Bambrugge
(50.9212°N, 3.9299°E)
Time: 07:52:43
(UTC+00:00)
Language:

IDEFIX/ARIANE 42P - Orbit

View from above orbital plane
View from above orbital plane
View from above satellite
View from above satellite

Ground track
Ground track

The orbit data is extracted from the following two-line orbital elements,

1 27422U 02021B   24202.80265321  .00000757  00000-0  30878-3 0  9997
2 27422  98.5276 139.8173 0012637 140.3347 219.8763 14.30175749158673
Epoch (UTC): 20 July 2024 19:15:49
Eccentricity: 0.0012637
inclination: 98.5276°
perigee height: 782 km
apogee height: 800 km
right ascension of ascending node: 139.8173°
argument of perigee: 140.3347°
revolutions per day: 14.30175749
mean anomaly at epoch: 219.8763°
orbit number at epoch: 15867

The dashed part of the orbit path shows where the satellite is in the earth's shadow,  

DLR